Temp
55 53 54 52 51 50 49 49 48 48 49 49 50 49 48 47 47 47 46 46 45 46
53 53 54 52 51 50 49 48 46 46 46 47 48 48 48 46 46 46 46 46 44 42
52 52 52 51 50 48 47 47 45 45 45 45 46 46 47 46 46 45 44 41 40 38
50 50 51 50 49 48 46 45 44 43 44 43 43 44 45 43 42 43 40 39 39 37
49 49 49 48 48 46 45 41 41 40 41 41 41 41 42 40 41 40 38 38 37 36
47 47 47 47 46 44 41 38 36 36 38 39 39 39 40 41 40 40 39 38 37 36
46 47 46 46 44 41 38 35 34 35 37 38 38 39 37 37 37 37 38 37 37 36
46 46 45 42 40 37 36 34 34 34 34 35 36 37 36 37 36 35 34 34 34 35
42 41 40 39 37 35 34 33 33 33 34 34 35 39 39 38 35 36 35 33 33 32
37 37 37 36 35 33 33 32 32 32 32 34 34 38 39 39 35 35 35 34 32 30
35 35 33 33 33 31 31 31 31 31 32 33 33 39 39 37 34 34 33 33 31 31
32 32 32 31 30 29 30 28 32 33 30 32 32 38 39 36 33 32 32 31 30 31
31 30 30 30 29 28 28 31 31 31 31 31 31 37 38 36 33 30 28 29 30 31
29 27 27 27 27 28 30 29 29 29 29 29 31 34 37 37 32 30 28 29 29 32
MSLP
1014.39 1014.81 1015.20 1015.54 1015.96 1016.32 1016.93 1017.56 1018.03 1018.39 1018.65 1018.98 1019.25 1020.00 1020.70 1021.32 1021.68 1022.54 1023.21 1023.57 1023.99 1024.24
1013.74 1014.06 1014.41 1014.61 1015.05 1015.54 1016.16 1016.84 1017.33 1017.68 1018.15 1018.52 1018.94 1019.37 1019.93 1020.68 1021.23 1021.80 1022.43 1022.96 1023.56 1023.86
1013.49 1013.77 1014.05 1014.41 1014.64 1014.93 1015.36 1015.96 1016.71 1017.31 1017.64 1018.13 1018.53 1018.76 1019.28 1019.97 1020.54 1021.19 1021.95 1022.24 1023.09 1023.70
1013.03 1013.31 1013.57 1013.75 1013.98 1014.24 1014.80 1015.43 1016.05 1016.63 1017.17 1017.67 1018.13 1018.56 1018.98 1019.51 1020.02 1020.54 1021.28 1021.94 1022.55 1023.47
1012.76 1012.91 1013.14 1013.40 1013.68 1014.04 1014.44 1014.79 1015.29 1015.93 1016.60 1017.12 1017.63 1018.11 1018.65 1019.09 1019.34 1019.98 1020.65 1021.36 1022.30 1022.96
1012.46 1012.53 1012.57 1012.68 1013.15 1013.77 1014.37 1014.81 1015.27 1015.63 1016.18 1016.58 1017.16 1017.68 1018.22 1018.64 1018.99 1019.39 1020.03 1020.73 1021.50 1022.24
1011.72 1011.83 1011.81 1012.27 1012.77 1013.28 1014.04 1014.79 1015.19 1015.45 1015.82 1016.13 1016.67 1017.28 1017.80 1018.32 1018.88 1019.50 1020.03 1020.72 1021.28 1021.84
1010.92 1011.14 1011.35 1011.79 1012.35 1012.96 1013.62 1014.35 1014.83 1015.20 1015.58 1016.00 1016.37 1016.82 1017.31 1017.98 1018.70 1019.39 1020.14 1020.71 1021.28 1022.22
1010.89 1011.11 1011.32 1011.61 1012.04 1012.56 1013.25 1013.96 1014.51 1014.92 1015.16 1015.50 1015.87 1016.27 1016.86 1017.52 1018.32 1019.05 1019.72 1020.61 1021.38 1022.10
1010.61 1010.98 1011.32 1011.56 1012.01 1012.50 1013.07 1013.63 1014.13 1014.46 1014.76 1015.02 1015.34 1015.74 1016.34 1017.03 1017.70 1018.46 1019.24 1020.06 1020.92 1022.04
1010.52 1010.75 1011.18 1011.69 1012.12 1012.60 1012.96 1013.35 1013.68 1014.00 1014.20 1014.60 1014.93 1015.42 1016.09 1016.82 1017.43 1018.12 1018.80 1019.54 1020.44 1021.23
1010.71 1010.90 1011.10 1011.53 1012.10 1012.71 1013.18 1013.63 1013.68 1013.85 1014.19 1014.46 1014.85 1015.14 1015.59 1016.36 1017.11 1017.85 1018.61 1019.44 1020.30 1021.02
1010.90 1011.11 1011.39 1011.68 1012.04 1012.38 1012.79 1013.23 1013.70 1014.02 1014.15 1014.42 1014.87 1015.24 1015.79 1016.45 1016.97 1017.65 1018.59 1019.69 1020.30 1020.72
1010.92 1011.28 1011.50 1011.83 1012.14 1012.68 1013.12 1013.63 1013.98 1014.25 1014.44 1014.58 1014.75 1015.16 1015.77 1016.36 1016.90 1017.32 1018.35 1019.15 1019.89 1020.43
Wind_Speed
8 5 7 7 6 8 9 9 9 10 9 11 11 11 12 11 12 11 10 12 8 7
7 9 8 8 7 6 8 7 11 13 11 10 11 12 13 10 12 13 12 11 11 5
7 7 7 6 7 7 7 8 10 11 12 11 11 11 12 10 12 12 8 6 8 5
7 7 7 7 7 8 8 8 10 11 12 12 11 10 11 10 10 13 10 8 11 9
7 7 7 7 7 7 7 8 11 10 11 11 11 11 11 11 12 14 14 13 12 12
8 8 8 8 7 7 7 7 7 8 10 10 11 11 11 12 11 12 14 14 15 15
9 9 8 7 7 7 7 8 7 7 8 9 10 10 9 9 9 9 10 11 12 14
10 9 8 8 8 8 8 7 7 7 7 7 9 8 10 11 11 10 9 8 8 8
7 6 7 7 7 8 8 7 7 8 9 10 7 15 19 13 11 12 12 11 9 9
6 6 7 6 7 8 8 7 9 8 8 9 9 19 21 19 10 11 12 12 11 10
5 6 5 6 7 5 5 9 7 8 7 8 8 19 20 19 10 11 12 12 13 13
4 5 6 7 6 3 5 3 5 5 7 8 7 20 22 19 11 11 11 9 11 12
3 4 5 4 6 3 3 4 4 4 5 6 6 18 20 16 8 10 8 9 10 16
2 3 4 4 3 4 5 5 4 5 4 7 8 12 21 21 7 8 9 9 9 9
Wind_Direction
197 192 206 201 181 193 195 206 193 195 192 190 181 181 183 187 188 186 197 190 193 192
199 200 213 200 184 186 183 187 184 190 189 190 186 184 184 183 188 188 189 197 192 163
201 209 210 204 199 186 176 174 179 189 187 188 193 185 184 187 185 183 188 158 153 145
205 215 214 208 199 188 175 176 182 182 184 186 184 185 184 181 174 177 169 156 159 162
214 215 214 213 205 187 184 172 174 171 178 179 182 183 185 182 175 172 170 171 164 162
221 215 217 205 195 186 174 171 169 164 179 178 182 181 192 193 185 180 179 174 174 171
217 217 204 197 190 172 167 174 179 182 182 181 180 188 175 172 169 172 178 176 178 173
214 208 197 193 186 169 172 185 184 172 178 174 179 182 174 176 172 165 160 152 153 161
218 207 204 190 178 166 169 174 170 182 179 180 186 187 188 175 173 171 163 157 147 135
202 203 203 180 165 169 174 165 184 182 177 187 181 185 188 176 165 167 169 162 149 141
203 198 169 167 180 165 164 180 181 186 183 180 183 187 185 176 163 159 156 159 157 159
202 185 171 179 169 155 145 162 190 183 169 176 176 190 184 171 162 156 154 145 153 159
190 179 184 167 160 142 138 159 149 156 167 155 162 185 186 174 164 147 135 148 160 166
134 148 140 123 103 114 117 122 128 133 139 152 162 181 193 184 170 158 161 167 170 181